Terminal Aerodrome Forecast
Issued by NWS Sterling, VA

Home | Current Version | Previous Version | Text Only | Print | Product List | Glossary On
Versions: 1 2 3 4 5 6 7 8 9 10 11 12 13 14 15 16 17 18 19 20 21 22 23 24
000
FTUS41 KLWX 122300
TAFDCA
TAF
KDCA 122320Z 1300/1324 18009KT P6SM FEW070 SCT120 BKN250
     FM130800 19007KT P6SM BKN060
     FM131100 20008KT P6SM SCT080
     FM131300 20009KT P6SM BKN090=

USA.gov is the U.S. government's official web portal to all federal, state and local government web resources and services.